DW9923 Weather Reports


time (UTC)temp
F
wind
direction
speed
knots
gust
knots
rain 1hr
in
rain 24hr
in
rain mn
in
humidity
%
barometer
mb
20260506070228 51 286 0.0 1.7 0.00 0.00 0.00 86
20260506062030 52 286 0.0 0.0 0.00 0.00 0.00 84
20260506060858 53 286 0.0 0.0 0.00 0.00 0.00 83
20260506060342 53 286 0.0 0.0 0.00 0.00 0.00 83
20260506051135 55 286 0.0 0.0 0.00 0.00 0.00 83
20260506050631 55 286 0.0 0.0 0.00 0.00 0.00 82
20260506050111 56 286 0.0 0.9 0.00 0.00 0.00 82
20260506045059 56 286 0.0 0.0 0.00 0.00 0.00 82
20260506044549 56 286 0.0 0.0 0.00 0.00 0.00 82
20260506044052 56 286 0.0 0.0 0.00 0.00 0.00 82
20260506043542 57 286 0.0 0.0 0.00 0.00 0.00 82
20260506043032 57 286 0.0 1.7 0.00 0.00 0.00 81
20260506042526 57 286 0.0 1.7 0.00 0.00 0.00 80
20260506042037 57 286 0.0 0.0 0.00 0.00 0.00 80
20260506041535 58 286 0.0 0.9 0.00 0.00 0.00 79
20260506041018 58 286 0.0 0.0 0.00 0.00 0.00 78
20260506040512 58 286 0.0 0.0 0.00 0.00 0.00 77
20260506040011 58 286 0.0 0.0 0.00 0.00 0.00 77
20260506035458 59 286 0.0 0.0 0.00 0.00 0.00 76
20260506034956 59 286 0.0 0.0 0.00 0.00 0.00 76
20260506034459 59 286 0.0 0.0 0.00 0.00 0.00 75
20260506033953 60 286 0.0 0.0 0.00 0.00 0.00 74
20260506033436 60 286 0.0 0.0 0.00 0.00 0.00 74
20260506032939 61 286 0.0 0.0 0.00 0.00 0.00 73
20260506032421 61 286 0.0 0.0 0.00 0.00 0.00 72
20260506031927 61 286 0.0 0.0 0.00 0.00 0.00 73
20260506030736 62 286 0.0 0.0 0.00 0.00 0.00 72
20260506030220 62 286 0.0 0.0 0.00 0.00 0.00 72
20260506025722 62 286 0.0 1.7 0.00 0.00 0.00 71
20260506023943 64 286 0.0 0.0 0.00 0.00 0.00 69
20260506023430 64 286 0.0 0.0 0.00 0.00 0.00 68
20260506022244 65 286 0.0 0.0 0.00 0.00 0.00 66
20260506021731 65 286 0.0 0.9 0.00 0.00 0.00 65
20260506021220 66 286 0.0 0.9 0.00 0.00 0.00 64
20260506020717 66 286 0.0 0.0 0.00 0.00 0.00 64
20260506020215 67 286 0.0 2.6 0.00 0.00 0.00 63
20260506015052 68 286 0.0 2.6 0.00 0.00 0.00 61
20260506013940 69 286 0.0 3.5 0.00 0.00 0.00 59
20260506013425 69 286 0.0 3.5 0.00 0.00 0.00 59
20260506012908 70 286 0.0 3.5 0.00 0.00 0.00 57
20260506012410 70 286 0.0 0.0 0.00 0.00 0.00 55
20260506011916 70 286 1.7 5.2 0.00 0.00 0.00 55
20260506011418 71 286 1.7 5.2 0.00 0.00 0.00 54
20260506010911 71 294 1.7 5.2 0.00 0.00 0.00 53
20260506010352 72 302 0.9 5.2 0.00 0.00 0.00 53
20260506005844 72 301 0.9 4.3 0.00 0.00 0.00 53
20260506005345 72 301 1.7 4.3 0.00 0.00 0.00 54
20260506004852 72 302 0.9 4.3 0.00 0.00 0.00 53
20260506004331 72 316 0.0 3.5 0.00 0.00 0.00 54
20260506003215 73 317 0.9 3.5 0.00 0.00 0.00 52
20260506000745 70 291 0.9 0.9 0.00 0.00 0.00 57
20260506000243 69 291 0.9 6.1 0.00 0.00 0.00 57
20260505233825 71 312 0.0 2.6 0.00 0.00 0.00 53
20260505232659 71 311 0.9 5.2 0.00 0.00 0.00 51
20260505232153 72 348 0.0 4.3 0.00 0.00 0.00 50
20260505231656 73 302 0.0 4.3 0.00 0.00 0.00 49
20260505231205 73 329 0.0 3.5 0.00 0.00 0.00 49
20260505230108 74 111 0.9 4.3 0.00 0.00 0.00 49
20260505225552 74 306 0.9 4.3 0.00 0.00 0.00 49
20260505225037 74 0 1.7 6.1 0.00 0.00 0.00 48
20260505224523 74 293 1.7 6.1 0.00 0.00 0.00 47
20260505224007 74 5 0.9 8.7 0.00 0.00 0.00 48
20260505222846 73 290 0.9 8.7 0.00 0.00 0.00 50
20260505222341 73 298 0.9 3.5 0.00 0.00 0.00 51
20260505221848 72 146 0.0 2.6 0.00 0.00 0.00 52
20260505220724 71 295 0.0 2.6 0.00 0.00 0.00 51
20260505220231 71 295 0.9 1.7 0.00 0.00 0.00 51
20260505215712 72 295 1.7 7.0 0.00 0.00 0.00 51
20260505214552 72 289 0.9 7.0 0.00 0.00 0.00 51
20260505213437 71 301 0.0 0.0 0.00 0.00 0.00 53
20260505212919 71 302 0.0 3.5 0.00 0.00 0.00 52
20260505211805 71 281 0.0 5.2 0.00 0.00 0.00 58
20260505211252 71 300 0.0 2.6 0.00 0.00 0.00 54
20260505210750 71 302 0.0 2.6 0.00 0.00 0.00 55
20260505210245 71 150 0.0 0.0 0.00 0.00 0.00 53
20260505205725 71 339 0.0 5.2 0.00 0.00 0.00 54
20260505205230 72 300 0.0 3.5 0.00 0.00 0.00 52
20260505204721 72 57 0.0 3.5 0.00 0.00 0.00 53
20260505204222 72 168 0.0 3.5 0.00 0.00 0.00 52
20260505203706 72 169 0.0 3.5 0.00 0.00 0.00 53
20260505201959 69 92 0.0 1.7 0.00 0.00 0.00 57
20260505201507 69 120 0.0 1.7 0.00 0.00 0.00 56
20260505201007 69 98 0.0 0.9 0.00 0.00 0.00 57
20260505200515 69 80 0.0 1.7 0.00 0.00 0.00 56
20260505200017 69 313 0.0 0.0 0.00 0.00 0.00 59
20260505195515 69 123 0.0 0.9 0.00 0.00 0.00 56
20260505194349 70 92 0.0 2.6 0.00 0.00 0.00 53
20260505193844 70 157 0.0 0.9 0.00 0.00 0.00 53
20260505192103 72 348 0.0 0.9 0.00 0.00 0.00 52
20260505191609 72 348 0.0 4.3 0.00 0.00 0.00 51
20260505191058 73 296 0.9 4.3 0.00 0.00 0.00 50
20260505190604 74 298 0.9 4.3 0.00 0.00 0.00 49
20260505190057 74 294 0.0 6.1 0.00 0.00 0.00 49
20260505185553 74 355 0.0 6.1 0.00 0.00 0.00 50
20260505184415 72 223 0.9 3.5 0.00 0.00 0.00 52
20260505183900 72 296 0.9 6.1 0.00 0.00 0.00 53
20260505183342 72 189 0.9 3.5 0.00 0.00 0.00 52
20260505182839 72 320 0.0 0.0 0.00 0.00 0.00 55
20260505182325 71 320 0.9 5.2 0.00 0.00 0.00 54
20260505181828 71 83 0.0 5.2 0.00 0.00 0.00 54
20260505181319 71 281 0.0 5.2 0.00 0.00 0.00 55
20260505174859 69 327 0.0 4.3 0.00 0.00 0.00 56
20260505174340 69 18 0.0 2.6 0.00 0.00 0.00 59
20260505173849 68 300 0.0 4.3 0.00 0.00 0.00 55
20260505173346 69 300 0.0 4.3 0.00 0.00 0.00 56
20260505172846 68 300 0.9 4.3 0.00 0.00 0.00 56
20260505172345 69 278 0.9 4.3 0.00 0.00 0.00 56
20260505171827 69 314 0.0 2.6 0.00 0.00 0.00 58
20260505171334 68 89 0.0 5.2 0.00 0.00 0.00 59
20260505170814 67 165 0.0 5.2 0.00 0.00 0.00 61
20260505170318 67 296 0.0 3.5 0.00 0.00 0.00 60
20260505165813 66 296 0.0 3.5 0.00 0.00 0.00 63
20260505165319 65 296 0.0 0.9 0.00 0.00 0.00 67
20260505164804 64 296 0.0 1.7 0.00 0.00 0.00 67
20260505163628 63 296 0.9 5.2 0.00 0.00 0.00 70
20260505163127 62 287 0.9 3.5 0.00 0.00 0.00 70
20260505162635 62 284 0.9 3.5 0.00 0.00 0.00 72
20260505162136 61 300 0.0 1.7 0.00 0.00 0.00 75
20260505161635 60 300 0.0 1.7 0.00 0.00 0.00 77
20260505161138 59 300 0.0 2.6 0.00 0.00 0.00 80
20260505160621 58 227 0.0 0.9 0.00 0.00 0.00 84
20260505160119 57 227 0.0 0.0 0.00 0.00 0.00 85
20260505152112 54 227 0.0 0.0 0.00 0.00 0.00 89
20260505151602 54 227 0.0 0.0 0.00 0.00 0.00 89
20260505151054 53 227 0.0 0.0 0.00 0.00 0.00 89
20260505150601 53 227 0.0 0.0 0.00 0.00 0.00 90
20260505140232 50 227 0.0 0.0 0.00 0.00 0.00 89
20260505124250 50 227 0.0 0.0 0.00 0.00 0.00 88
20260505122459 50 227 0.0 0.0 0.00 0.00 0.00 88
20260505121955 50 227 0.0 0.0 0.00 0.00 0.00 88
20260505121438 49 227 0.0 0.0 0.00 0.00 0.00 88
20260505120317 49 227 0.0 0.0 0.00 0.00 0.00 88
20260505115149 49 227 0.0 0.0 0.00 0.00 0.00 88
20260505114648 49 227 0.0 0.0 0.00 0.00 0.00 88
20260505114151 49 227 0.0 0.0 0.00 0.00 0.00 88
20260505113659 49 227 0.0 0.0 0.00 0.00 0.00 88
20260505113206 49 227 0.0 0.0 0.00 0.00 0.00 88
20260505112658 49 227 0.0 0.0 0.00 0.00 0.00 87
20260505111526 49 227 0.0 0.0 0.00 0.00 0.00 87
20260505111017 49 227 0.0 0.0 0.00 0.00 0.00 87
20260505110509 49 227 0.0 0.0 0.00 0.00 0.00 86
20260505101944 50 227 0.0 0.0 0.00 0.00 0.00 82
20260505101434 51 227 0.0 0.0 0.00 0.00 0.00 81
20260505100922 51 227 0.0 0.0 0.00 0.00 0.00 81
20260505100410 51 227 0.0 0.0 0.00 0.00 0.00 81
20260505095911 51 227 0.0 0.0 0.00 0.00 0.00 81
20260505095353 52 227 0.0 0.0 0.00 0.00 0.00 81
20260505094848 52 227 0.0 0.0 0.00 0.00 0.00 81
20260505094337 52 227 0.0 0.0 0.00 0.00 0.00 81
20260505093845 52 227 0.0 0.0 0.00 0.00 0.00 81
20260505093332 53 227 0.0 0.0 0.00 0.00 0.00 81
20260505092840 53 227 0.0 0.0 0.00 0.00 0.00 81
20260505092349 53 227 0.0 0.0 0.00 0.00 0.00 81
20260505091856 53 227 0.0 0.0 0.00 0.00 0.00 81
20260505091342 53 227 0.0 0.0 0.00 0.00 0.00 82
20260505090824 53 227 0.0 0.0 0.00 0.00 0.00 82
20260505090322 53 227 0.0 0.0 0.00 0.00 0.00 81
20260505085815 54 227 0.0 0.0 0.00 0.00 0.00 81
20260505084657 54 227 0.0 0.0 0.00 0.00 0.00 81
20260505084143 54 227 0.0 0.0 0.00 0.00 0.00 81
20260505083643 54 227 0.0 0.0 0.00 0.00 0.00 81
20260505081846 54 227 0.0 0.0 0.00 0.00 0.00 80
20260505081335 54 227 0.0 0.0 0.00 0.00 0.00 80
20260505080214 54 227 0.0 0.0 0.00 0.00 0.00 80
20260505075717 54 227 0.0 0.0 0.00 0.00 0.00 80
20260505074557 55 227 0.0 0.0 0.00 0.00 0.00 80
20260505074105 55 227 0.0 0.0 0.00 0.00 0.00 80
20260505073555 55 227 0.0 0.0 0.00 0.00 0.00 80
20260505073042 55 227 0.0 0.0 0.00 0.00 0.00 80
20260505072536 55 227 0.0 0.0 0.00 0.00 0.00 79
20260505072043 55 227 0.0 0.0 0.00 0.00 0.00 79
20260505071553 55 227 0.0 0.0 0.00 0.00 0.00 79
20260505071036 55 227 0.0 0.0 0.00 0.00 0.00 79
20260505070519 55 227 0.0 0.0 0.00 0.00 0.00 79